Location: Charbonni�res
(45.9952°N, 2.9982°E)
Time: 17:03:31
(UTC+00:00)

Spot 2 - Pass Details

Date: 29 November 2020
Orbit: 569 x 774 km, 98.7° (Epoch: 17 January)

Event Time Altitude Azimuth Distance (km) Brightness Sun altitude
Rises 05:52:36 0° 13° (NNE) 3,262 7.7 -12.6°
Reaches altitude 10° 05:54:56 10° 12° (NNE) 2,333 6.9 -12.2°
Maximum altitude 06:00:07 78° 287° (WNW) 791 4.4 -11.4°
Drops below altitude 10° 06:05:09 10° 201° (SSW) 2,273 6.9 -10.6°
Sets 06:07:24 0° 200° (SSW) 3,172 7.7 -10.2°
